Weather in Nebug

Russia / Krasnodar Krai     44°10′16″N   39°00′07″E
temp.,
°C
wind,
m/s
gust,
m/s
humid.,
%
clouds,
%
prec.,
mm/h
press.,
hPa
HPBL,
m
23 april, fri
fri2300:00+7e119346 0.0 102518
03:00+6se22955 0.0 102646
06:00+6ese11974 0.0 102632
09:00+12s23610 0.0 1025647
12:00+14ssw35596 0.0 1024796
15:00+14s2458100 0.0 1023599
18:00+12sse1171100 0.0 1021148
21:00+10ne1172100 0.0 102013
24 april, sat
sat2400:00+10nw0067100 0.0 102011
03:00+9wnw1170100 0.0 102014
06:00+10sse1165100 0.0 102022
09:00+11s2587100 0.8 1021451
12:00+14ssw576244 0.1 10211157
15:00+13ssw587014 0.1 1022883
18:00+11ssw258635 0.0 1022504
21:00+8ne1197100 0.0 102317
25 april, sun
sun2500:00+7ne3497100 0.0 102280
03:00+7nne3589100 0.0 1021127
06:00+6ne467886 0.0 1020144
09:00+11ne4660100 0.0 1019394
12:00+13nne4664100 0.0 1017480
15:00+13ne5868100 0.1 1015552
18:00+10ne61482100 0.0 1013599
21:00+9ne4691100 0.0 1014221
26 april, mon
mon2600:00+8ne3497100 0.0 1014124
03:00+9s2799100 0.1 1013561
06:00+9wnw0199100 1.6 101179
09:00+9ene2298100 5.6 1011106
12:00+10n1295100 3.3 1012189
15:00+10nne2391100 3.8 1012506
18:00+9nne3892100 0.3 1014566
21:00+6nne3497100 0.3 101784
27 april, tue
tue2700:00+6ne239445 0.0 101848
03:00+4ne339490 0.0 101849
06:00+4ne339081 0.0 101957
09:00+12ne12580 0.0 1018550
12:00+13s356427 0.0 1017830
15:00+12s358137 0.3 1017767
18:00+11ssw238994 0.2 1017447
21:00+8ne2197100 0.2 101926